Previsão horária em Ploskie

Hoje, 7 Março, Domingo

Tempo Temperatura Precipitação Vento Pressão Humidade
00:00 -4°C° 0 mm 6 m/s 749 mmHg 65%
01:00 -4°C° 0 mm 7 m/s 748 mmHg 70%
02:00 -4°C° 0 mm 7 m/s 748 mmHg 75%
03:00 -4°C° 0.1 mm 8 m/s 747 mmHg 79%
04:00 -4°C° 0.1 mm 8 m/s 746 mmHg 83%
05:00 -4°C° 0.1 mm 9 m/s 745 mmHg 87%
06:00 -4°C° 0 mm 9 m/s 745 mmHg 83%
07:00 -4°C° 0 mm 9 m/s 744 mmHg 78%
08:00 -4°C° 0 mm 10 m/s 744 mmHg 74%
09:00 -4°C° 0 mm 10 m/s 744 mmHg 76%
10:00 -4°C° 0 mm 10 m/s 743 mmHg 77%
11:00 -3°C° 0 mm 10 m/s 743 mmHg 79%
12:00 -3°C° 0 mm 10 m/s 743 mmHg 78%
13:00 -2°C° 0 mm 10 m/s 743 mmHg 77%
14:00 -2°C° 0 mm 10 m/s 743 mmHg 75%
15:00 -1°C° 0.2 mm 9 m/s 743 mmHg 78%
16:00 -3°C° 0.2 mm 9 m/s 742 mmHg 81%
17:00 -2°C° 0.2 mm 8 m/s 742 mmHg 84%
18:00 -3°C° 0.7 mm 7 m/s 742 mmHg 86%
19:00 -3°C° 0.7 mm 6 m/s 742 mmHg 89%
20:00 -4°C° 0.7 mm 5 m/s 743 mmHg 91%
21:00 -5°C° 0.1 mm 5 m/s 743 mmHg 87%
22:00 -5°C° 0.1 mm 5 m/s 743 mmHg 82%
23:00 -4°C° 0.1 mm 4 m/s 743 mmHg 77%

Amanhã, 8 Março, Segunda-feira

Tempo Temperatura Precipitação Vento Pressão Humidade
00:00 -5°C° 0 mm 4 m/s 743 mmHg 79%
01:00 -7°C° 0 mm 4 m/s 743 mmHg 80%
02:00 -7°C° 0 mm 4 m/s 744 mmHg 81%
03:00 -7°C° 0 mm 4 m/s 744 mmHg 81%
04:00 -7°C° 0 mm 4 m/s 744 mmHg 82%
05:00 -7°C° 0 mm 5 m/s 744 mmHg 82%
06:00 -7°C° 0 mm 5 m/s 744 mmHg 82%
07:00 -6°C° 0 mm 5 m/s 745 mmHg 82%
08:00 -6°C° 0 mm 5 m/s 745 mmHg 83%
09:00 -5°C° 0.1 mm 5 m/s 745 mmHg 77%
10:00 -5°C° 0.1 mm 5 m/s 746 mmHg 72%
11:00 -4°C° 0.1 mm 5 m/s 746 mmHg 67%
12:00 -4°C° 0 mm 5 m/s 746 mmHg 65%
13:00 -4°C° 0 mm 5 m/s 746 mmHg 62%
14:00 -4°C° 0 mm 5 m/s 746 mmHg 60%
15:00 -4°C° 0 mm 5 m/s 746 mmHg 62%
16:00 -4°C° 0 mm 5 m/s 747 mmHg 64%
17:00 -4°C° 0 mm 5 m/s 747 mmHg 66%
18:00 -5°C° 0 mm 5 m/s 747 mmHg 70%
19:00 -4°C° 0 mm 4 m/s 748 mmHg 73%
20:00 -5°C° 0 mm 4 m/s 748 mmHg 77%
21:00 -5°C° 0 mm 4 m/s 748 mmHg 78%
22:00 -5°C° 0 mm 3 m/s 749 mmHg 78%
23:00 -6°C° 0 mm 3 m/s 749 mmHg 79%

Depois de amanhã, 9 Março, Terça-feira

Tempo Temperatura Precipitação Vento Pressão Humidade
00:00 -6°C° 0 mm 3 m/s 749 mmHg 79%
01:00 -6°C° 0 mm 3 m/s 750 mmHg 79%
02:00 -5°C° 0 mm 2 m/s 750 mmHg 79%
03:00 -5°C° 0 mm 2 m/s 750 mmHg 78%
04:00 -7°C° 0 mm 3 m/s 750 mmHg 77%
05:00 -7°C° 0 mm 3 m/s 750 mmHg 76%
06:00 -7°C° 0 mm 3 m/s 750 mmHg 74%
07:00 -7°C° 0 mm 3 m/s 751 mmHg 72%
08:00 -7°C° 0 mm 3 m/s 751 mmHg 70%
09:00 -6°C° 0 mm 2 m/s 751 mmHg 64%
10:00 -5°C° 0 mm 2 m/s 752 mmHg 58%
11:00 -4°C° 0 mm 2 m/s 752 mmHg 52%
12:00 -4°C° 0 mm 2 m/s 752 mmHg 49%
13:00 -1°C° 0 mm 1 m/s 752 mmHg 46%
14:00 0°C° 0 mm 1 m/s 752 mmHg 43%
15:00 -1°C° 0 mm 1 m/s 752 mmHg 43%
16:00 -1°C° 0 mm 1 m/s 752 mmHg 44%
17:00 -1°C° 0 mm 1 m/s 751 mmHg 44%
18:00 -1°C° 0 mm 1 m/s 752 mmHg 48%
19:00 -3°C° 0 mm 0 m/s 752 mmHg 52%
20:00 -3°C° 0 mm 0 m/s 752 mmHg 56%
21:00 -3°C° 0 mm 0 m/s 752 mmHg 57%
22:00 -2°C° 0 mm 1 m/s 752 mmHg 57%
23:00 -3°C° 0 mm 1 m/s 752 mmHg 57%

10 Março, Quarta-feira

Tempo Temperatura Precipitação Vento Pressão Humidade
00:00 -3°C° 0 mm 1 m/s 752 mmHg 57%
01:00 -3°C° 0 mm 1 m/s 752 mmHg 57%
02:00 -5°C° 0 mm 2 m/s 752 mmHg 57%
03:00 -5°C° 0 mm 2 m/s 752 mmHg 56%
04:00 -5°C° 0 mm 2 m/s 752 mmHg 55%
05:00 -5°C° 0 mm 2 m/s 752 mmHg 55%
06:00 -5°C° 0 mm 2 m/s 752 mmHg 54%
07:00 -5°C° 0 mm 2 m/s 752 mmHg 53%
08:00 -5°C° 0 mm 2 m/s 752 mmHg 52%
09:00 -5°C° 0 mm 3 m/s 752 mmHg 47%
10:00 -4°C° 0 mm 3 m/s 752 mmHg 43%
11:00 -2°C° 0 mm 3 m/s 752 mmHg 38%
12:00 -1°C° 0 mm 3 m/s 752 mmHg 36%
13:00 0°C° 0 mm 3 m/s 752 mmHg 34%
14:00 0°C° 0 mm 3 m/s 752 mmHg 32%
15:00 0°C° 0 mm 3 m/s 751 mmHg 33%
16:00 0°C° 0 mm 3 m/s 751 mmHg 35%
17:00 0°C° 0 mm 3 m/s 751 mmHg 36%
18:00 -1°C° 0 mm 2 m/s 751 mmHg 40%
19:00 -2°C° 0 mm 2 m/s 751 mmHg 43%
20:00 -3°C° 0 mm 2 m/s 751 mmHg 47%
21:00 -3°C° 0 mm 2 m/s 751 mmHg 47%
22:00 -4°C° 0 mm 3 m/s 751 mmHg 48%
23:00 -4°C° 0 mm 3 m/s 751 mmHg 48%

11 Março, Quinta-feira

Tempo Temperatura Precipitação Vento Pressão Humidade
00:00 -4°C° 0 mm 3 m/s 750 mmHg 48%
01:00 -4°C° 0 mm 3 m/s 750 mmHg 48%
02:00 -4°C° 0 mm 4 m/s 749 mmHg 47%
03:00 -4°C° 0 mm 4 m/s 749 mmHg 49%
04:00 -4°C° 0 mm 4 m/s 748 mmHg 50%
05:00 -4°C° 0 mm 4 m/s 747 mmHg 52%
06:00 -5°C° 0 mm 5 m/s 747 mmHg 50%
07:00 -4°C° 0 mm 5 m/s 746 mmHg 49%
08:00 -4°C° 0 mm 6 m/s 746 mmHg 48%
09:00 -3°C° 0 mm 6 m/s 745 mmHg 48%
10:00 -2°C° 0 mm 6 m/s 744 mmHg 48%
11:00 -1°C° 0 mm 7 m/s 744 mmHg 48%
12:00 -1°C° 0.1 mm 7 m/s 743 mmHg 56%
13:00 -1°C° 0.1 mm 7 m/s 742 mmHg 63%
14:00 -1°C° 0.1 mm 8 m/s 741 mmHg 71%
15:00 -1°C° 0.4 mm 8 m/s 740 mmHg 79%
16:00 -1°C° 0.4 mm 8 m/s 739 mmHg 87%
17:00 -1°C° 0.4 mm 7 m/s 738 mmHg 95%
18:00 -1°C° 0.5 mm 7 m/s 738 mmHg 94%
19:00 0°C° 0.5 mm 7 m/s 737 mmHg 93%
20:00 0°C° 0.5 mm 7 m/s 736 mmHg 92%
21:00 +2°C° 0.4 mm 7 m/s 736 mmHg 90%
22:00 +3°C° 0.4 mm 7 m/s 736 mmHg 89%
23:00 +3°C° 0.4 mm 7 m/s 735 mmHg 88%

12 Março, Sexta-feira

Tempo Temperatura Precipitação Vento Pressão Humidade
00:00 +3°C° 0.4 mm 7 m/s 735 mmHg 88%
01:00 +3°C° 0.4 mm 6 m/s 735 mmHg 89%
02:00 +2°C° 0.4 mm 6 m/s 735 mmHg 90%
03:00 +2°C° 0 mm 6 m/s 735 mmHg 90%
04:00 +1°C° 0 mm 5 m/s 736 mmHg 90%
05:00 +1°C° 0 mm 5 m/s 736 mmHg 90%
06:00 +1°C° 0 mm 5 m/s 735 mmHg 90%
07:00 +1°C° 0 mm 6 m/s 735 mmHg 90%
08:00 +1°C° 0 mm 6 m/s 735 mmHg 90%
09:00 +2°C° 0 mm 6 m/s 735 mmHg 86%
10:00 +3°C° 0 mm 7 m/s 735 mmHg 82%
11:00 +4°C° 0 mm 7 m/s 735 mmHg 79%
12:00 +4°C° 0.7 mm 7 m/s 735 mmHg 80%
13:00 +3°C° 0.7 mm 6 m/s 734 mmHg 82%
14:00 +3°C° 0.7 mm 6 m/s 734 mmHg 83%
15:00 +3°C° 0 mm 6 m/s 734 mmHg 77%
16:00 +4°C° 0 mm 6 m/s 734 mmHg 71%
17:00 +5°C° 0 mm 6 m/s 734 mmHg 65%
18:00 +4°C° 0 mm 6 m/s 734 mmHg 68%
19:00 +3°C° 0 mm 7 m/s 734 mmHg 71%
20:00 +3°C° 0 mm 7 m/s 734 mmHg 74%
21:00 +2°C° 0 mm 7 m/s 735 mmHg 75%
22:00 +2°C° 0 mm 7 m/s 735 mmHg 77%
23:00 +2°C° 0 mm 7 m/s 736 mmHg 78%
Mostrar mais

Necessitamos do seu Consentimento

A Meteoprog e os seus Fornecedores de Serviços podem armazenar e aceder a dados pessoais como cookies, identificadores do dispositivo ou outras tecnologias semelhantes existentes no seu dispositivo e processar estes dados para personalizar conteúdos e anúncios, assim como funcionalidades nas redes sociais e análise de tráfego.

  • Armazenar e/ou aceder a informações no seu dispositivo

    Os cookies, identificadores do dispositivo ou outras informações podem ser armazenados ou acedidos no seu dispositivo, para os fins acima indicados.

  • Anúncios e conteúdos personalizados, medição de anúncios e conteúdos, dados sobre o público-alvo e desenvolvimento de produtos

    Os anúncios e os conteúdos podem ser personalizados com base num perfil. Podem ser adicionados dados adicionais para uma maior personalização dos anúncios e dos conteúdos. A eficácia dos anúncios e dos conteúdos pode ser medida. Podem ser obtidas informações sobre o público que visualizou os anúncios e os conteúdos. Estes dados podem ser usados para desenvolver ou melhorar sistemas, softwares ou a experiência do utilizador.

Ao clicar em "Eu concordo”, permitirá o uso de cookies, identificadores do dispositivo e web beacons mencionados ou outras tecnologias semelhantes. As configurações do navegador do seu dispositivo podem ser alteradas.

Para certos fins, podem ser invocados interesses legítimos ao invés de consentimento. Pode ler mais informação sobre este assunto na nossa Política de Privacidade e Cookies.